Time,TemperatureF,DewpointF,PressureIn,WindDirection,WindDirectionDegrees,WindSpeedMPH,WindSpeedGustMPH,Humidity,HourlyPrecipIn,Conditions,Clouds,dailyrainin,SoftwareType,DateUTC
2013-05-21 00:02:00,34.0,-99.9,-100.00,North,0,23.0,32.0,-999,-99.99,,,-99.99,,2013-05-21 06:02:00,
2013-05-21 00:52:00,32.0,-99.9,-100.00,East,92,29.0,35.0,-999,-99.99,,,-99.99,,2013-05-21 06:52:00,
2013-05-21 01:02:00,32.0,-99.9,-100.00,East,92,29.0,35.0,-999,-99.99,,,-99.99,,2013-05-21 07:02:00,
2013-05-21 01:52:00,32.0,-99.9,-100.00,East,91,23.0,40.0,-999,-99.99,,,-99.99,,2013-05-21 07:52:00,
2013-05-21 02:02:00,32.0,-99.9,-100.00,East,91,23.0,40.0,-999,-99.99,,,-99.99,,2013-05-21 08:02:00,
2013-05-21 02:52:00,32.0,-99.9,-100.00,East,92,25.0,30.0,-999,-99.99,,,-99.99,,2013-05-21 08:52:00,
2013-05-21 03:01:00,32.0,-99.9,-100.00,East,92,25.0,30.0,-999,-99.99,,,-99.99,,2013-05-21 09:01:00,
2013-05-21 03:53:00,32.0,-99.9,-100.00,East,99,27.0,30.0,-999,-99.99,,,-99.99,,2013-05-21 09:53:00,
2013-05-21 04:03:00,32.0,-99.9,-100.00,East,99,27.0,30.0,-999,-99.99,,,-99.99,,2013-05-21 10:03:00,
2013-05-21 04:53:00,30.0,-99.9,-100.00,East,94,19.0,28.0,-999,-99.99,,,-99.99,,2013-05-21 10:53:00,
2013-05-21 05:03:00,30.0,-99.9,-100.00,East,94,19.0,28.0,-999,-99.99,,,-99.99,,2013-05-21 11:03:00,
2013-05-21 05:52:00,30.0,-99.9,-100.00,East,93,26.0,29.0,-999,-99.99,,,-99.99,,2013-05-21 11:52:00,
2013-05-21 06:02:00,30.0,-99.9,-100.00,East,93,26.0,29.0,-999,-99.99,,,-99.99,,2013-05-21 12:02:00,
2013-05-21 06:52:00,32.0,-99.9,-100.00,East,94,13.0,24.0,-999,-99.99,,,-99.99,,2013-05-21 12:52:00,
2013-05-21 07:01:00,32.0,-99.9,-100.00,East,94,13.0,24.0,-999,-99.99,,,-99.99,,2013-05-21 13:01:00,
2013-05-21 07:52:00,32.0,-99.9,-100.00,East,89,24.0,28.0,-999,-99.99,,,-99.99,,2013-05-21 13:52:00,
2013-05-21 08:02:00,32.0,-99.9,-100.00,East,89,24.0,28.0,-999,-99.99,,,-99.99,,2013-05-21 14:02:00,
2013-05-21 08:52:00,34.0,-99.9,-100.00,East,93,25.0,32.0,-999,-99.99,,,-99.99,,2013-05-21 14:52:00,
2013-05-21 09:01:00,34.0,-99.9,-100.00,East,93,25.0,32.0,-999,-99.99,,,-99.99,,2013-05-21 15:01:00,
2013-05-21 09:53:00,36.0,-99.9,-100.00,East,88,23.0,32.0,-999,-99.99,,,-99.99,,2013-05-21 15:53:00,
2013-05-21 10:03:00,36.0,-99.9,-100.00,East,88,23.0,32.0,-999,-99.99,,,-99.99,,2013-05-21 16:03:00,
2013-05-21 10:53:00,39.0,-99.9,-100.00,NNE,12,20.0,35.0,-999,-99.99,,,-99.99,,2013-05-21 16:53:00,
2013-05-21 11:02:00,39.0,-99.9,-100.00,NNE,12,20.0,35.0,-999,-99.99,,,-99.99,,2013-05-21 17:02:00,
2013-05-21 11:53:00,43.0,-99.9,-100.00,NNE,26,27.0,32.0,-999,-99.99,,,-99.99,,2013-05-21 17:53:00,
2013-05-21 12:02:00,43.0,-99.9,-100.00,NNE,26,27.0,32.0,-999,-99.99,,,-99.99,,2013-05-21 18:02:00,
2013-05-21 12:52:00,45.0,-99.9,-100.00,East,95,26.0,40.0,-999,-99.99,,,-99.99,,2013-05-21 18:52:00,
2013-05-21 13:02:00,45.0,-99.9,-100.00,East,95,26.0,40.0,-999,-99.99,,,-99.99,,2013-05-21 19:02:00,
2013-05-21 13:52:00,48.0,-99.9,-100.00,East,90,27.0,33.0,-999,-99.99,,,-99.99,,2013-05-21 19:52:00,
2013-05-21 14:00:00,48.0,-99.9,-100.00,East,97,27.0,31.0,-999,-99.99,,,-99.99,,2013-05-21 20:00:00,
2013-05-21 14:03:00,48.0,-99.9,-100.00,East,90,27.0,33.0,-999,-99.99,,,-99.99,,2013-05-21 20:03:00,
2013-05-21 14:52:00,48.0,-99.9,-100.00,East,97,27.0,31.0,-999,-99.99,,,-99.99,,2013-05-21 20:52:00,
2013-05-21 15:00:00,48.0,-99.9,-100.00,East,87,28.0,35.0,-999,-99.99,,,-99.99,,2013-05-21 21:00:00,
2013-05-21 15:54:00,48.0,-99.9,-100.00,East,87,28.0,35.0,-999,-99.99,,,-99.99,,2013-05-21 21:54:00,
2013-05-21 16:00:00,48.0,-99.9,-100.00,East,93,34.0,36.0,-999,-99.99,,,-99.99,,2013-05-21 22:00:00,
2013-05-21 16:53:00,48.0,-99.9,-100.00,East,93,34.0,36.0,-999,-99.99,,,-99.99,,2013-05-21 22:53:00,
2013-05-21 17:00:00,52.0,-99.9,-100.00,East,82,34.0,35.0,-999,-99.99,,,-99.99,,2013-05-21 23:00:00,
2013-05-21 17:52:00,52.0,-99.9,-100.00,East,82,34.0,35.0,-999,-99.99,,,-99.99,,2013-05-21 23:52:00,
2013-05-21 18:00:00,50.0,-99.9,-100.00,East,88,21.0,30.0,-999,-99.99,,,-99.99,,2013-05-22 00:00:00,
2013-05-21 18:52:00,50.0,-99.9,-100.00,East,88,21.0,30.0,-999,-99.99,,,-99.99,,2013-05-22 00:52:00,
2013-05-21 19:00:00,50.0,-99.9,-100.00,East,85,29.0,32.0,-999,-99.99,,,-99.99,,2013-05-22 01:00:00,
2013-05-21 19:52:00,50.0,-99.9,-100.00,East,85,29.0,32.0,-999,-99.99,,,-99.99,,2013-05-22 01:52:00,
2013-05-21 20:00:00,48.0,-99.9,-100.00,East,79,17.0,23.0,-999,-99.99,,,-99.99,,2013-05-22 02:00:00,
2013-05-21 20:52:00,48.0,-99.9,-100.00,East,79,17.0,23.0,-999,-99.99,,,-99.99,,2013-05-22 02:52:00,
2013-05-21 21:00:00,45.0,-99.9,-100.00,East,97,4.0,6.0,-999,-99.99,,,-99.99,,2013-05-22 03:00:00,
2013-05-21 21:53:00,45.0,-99.9,-100.00,East,97,4.0,6.0,-999,-99.99,,,-99.99,,2013-05-22 03:53:00,
2013-05-21 22:00:00,39.0,-99.9,-100.00,NE,40,11.0,11.0,-999,-99.99,,,-99.99,,2013-05-22 04:00:00,
2013-05-21 22:53:00,39.0,-99.9,-100.00,NE,40,11.0,11.0,-999,-99.99,,,-99.99,,2013-05-22 04:53:00,
2013-05-21 23:00:00,39.0,-99.9,-100.00,NNE,20,9.0,12.0,-999,-99.99,,,-99.99,,2013-05-22 05:00:00,
2013-05-21 23:52:00,39.0,-99.9,-100.00,NNE,20,9.0,12.0,-999,-99.99,,,-99.99,,2013-05-22 05:52:00,